TimeCDT,TemperatureF,Dew PointF,Humidity,Sea Level PressureIn,VisibilityMPH,Wind Direction,Wind SpeedMPH,Gust SpeedMPH,PrecipitationIn,Events,Conditions,WindDirDegrees,DateUTC
12:53 AM,70.0,50.0,49,29.85,10.0,SSW,15.0,-,N/A,,Clear,200,2012-11-03 05:53:00
1:53 AM,68.0,48.9,50,29.86,10.0,SSW,17.3,-,N/A,,Clear,200,2012-11-03 06:53:00
2:53 AM,66.9,50.0,54,29.88,10.0,SW,12.7,-,N/A,,Clear,230,2012-11-03 07:53:00
3:43 AM,53.6,44.6,72,29.93,10.0,NW,13.8,-,N/A,,Clear,310,2012-11-03 08:43:00
3:53 AM,52.0,43.0,71,29.93,10.0,NNW,11.5,-,N/A,,Clear,330,2012-11-03 08:53:00
4:53 AM,46.9,37.9,71,29.97,10.0,NNW,9.2,-,N/A,,Clear,330,2012-11-03 09:53:00
5:53 AM,45.0,36.0,71,30.02,10.0,NW,6.9,-,N/A,,Clear,320,2012-11-03 10:53:00
6:53 AM,43.0,36.0,76,30.05,10.0,NW,6.9,-,N/A,,Clear,320,2012-11-03 11:53:00
7:53 AM,41.0,35.1,79,30.07,10.0,NW,5.8,-,N/A,,Clear,310,2012-11-03 12:53:00
8:53 AM,44.1,36.0,73,30.11,10.0,NW,8.1,-,N/A,,Clear,320,2012-11-03 13:53:00
9:53 AM,46.9,36.0,66,30.12,10.0,NW,9.2,-,N/A,,Clear,320,2012-11-03 14:53:00
10:53 AM,50.0,36.0,59,30.13,10.0,North,11.5,20.7,N/A,,Clear,350,2012-11-03 15:53:00
11:53 AM,53.1,36.0,52,30.14,10.0,North,12.7,-,N/A,,Clear,360,2012-11-03 16:53:00
12:53 PM,55.9,37.0,49,30.13,10.0,North,10.4,-,N/A,,Clear,350,2012-11-03 17:53:00
1:53 PM,57.0,37.9,49,30.12,10.0,NNW,12.7,-,N/A,,Clear,330,2012-11-03 18:53:00
2:53 PM,59.0,37.9,46,30.12,10.0,NNW,10.4,-,N/A,,Clear,330,2012-11-03 19:53:00
3:53 PM,57.9,37.0,46,30.13,10.0,NNW,11.5,-,N/A,,Clear,330,2012-11-03 20:53:00
4:53 PM,57.9,36.0,44,30.14,10.0,NNW,9.2,-,N/A,,Clear,340,2012-11-03 21:53:00
5:53 PM,55.0,34.0,45,30.14,10.0,North,6.9,-,N/A,,Clear,360,2012-11-03 22:53:00
6:53 PM,51.1,35.1,54,30.16,10.0,North,8.1,-,N/A,,Clear,10,2012-11-03 23:53:00
7:53 PM,45.0,35.1,68,30.18,10.0,North,5.8,-,N/A,,Clear,360,2012-11-04 00:53:00
8:53 PM,46.0,36.0,68,30.18,10.0,NE,3.5,-,N/A,,Clear,50,2012-11-04 01:53:00
9:53 PM,44.1,36.0,73,30.19,10.0,Calm,Calm,-,N/A,,Clear,0,2012-11-04 02:53:00
10:53 PM,42.1,36.0,79,30.20,10.0,Calm,Calm,-,N/A,,Clear,0,2012-11-04 03:53:00
11:53 PM,41.0,36.0,82,30.20,9.0,Calm,Calm,-,N/A,,Clear,0,2012-11-04 04:53:00